EDT,Max TemperatureF,Mean TemperatureF,Min TemperatureF,Max Dew PointF,MeanDew PointF,Min DewpointF,Max Humidity, Mean Humidity, Min Humidity, Max Sea Level PressureIn, Mean Sea Level PressureIn, Min Sea Level PressureIn, Max VisibilityMiles, Mean VisibilityMiles, Min VisibilityMiles, Max Wind SpeedMPH, Mean Wind SpeedMPH, Max Gust SpeedMPH,PrecipitationIn, CloudCover, Events, WindDirDegrees
2013-9-1,91,80,68,73,68,66,100,88,49,29.97,29.93,29.86,10,5,2,17,2,30,0.00,2,Rain-Thunderstorm,235
2013-9-2,87,78,68,73,70,66,100,89,52,29.97,29.92,29.87,10,6,0,5,0,,0.00,4,Fog,270
2013-9-3,89,79,68,73,69,63,100,84,43,30.02,29.93,29.87,10,7,2,12,1,,0.00,1,,329
2013-9-4,86,74,62,66,62,57,88,77,42,30.16,30.09,30.02,10,10,5,9,1,,0.00,0,,6
2013-9-5,87,74,60,64,62,52,100,83,29,30.18,30.14,30.11,10,7,1,7,1,,0.00,0,,348
2013-9-6,82,73,64,64,59,55,94,71,39,30.24,30.18,30.14,10,10,10,12,4,,0.00,0,,22
2013-9-7,84,72,59,64,60,55,94,81,45,30.19,30.13,30.05,10,9,5,6,0,,0.00,2,,267
2013-9-8,87,74,60,66,62,57,100,81,37,30.06,30.03,29.98,10,6,1,8,1,,0.00,1,,342
2013-9-9,87,74,62,68,64,61,100,81,40,30.20,30.12,30.06,10,6,1,7,0,,0.00,0,,126
2013-9-10,89,76,64,70,65,63,100,81,40,30.29,30.24,30.19,10,7,1,6,0,,0.00,1,,155
2013-9-11,89,76,64,66,64,61,100,79,38,30.27,30.22,30.14,10,8,2,8,1,,0.00,2,,198
2013-9-12,91,80,68,72,65,63,94,75,40,30.14,30.03,29.90,10,10,10,7,1,,0.00,3,,260
2013-9-13,87,76,64,68,60,50,88,68,29,29.97,29.89,29.84,10,10,10,14,3,18,0.00,2,,345
2013-9-14,77,66,55,57,50,46,88,64,44,30.17,30.06,29.97,10,10,10,12,7,20,0.00,3,,14
2013-9-15,80,66,51,64,57,52,100,86,51,30.27,30.21,30.17,10,9,5,6,0,,0.00,3,,48
2013-9-16,87,76,64,66,62,54,100,73,31,30.22,30.17,30.11,10,9,5,9,2,,0.00,6,,359
2013-9-17,75,68,60,59,54,50,77,62,44,30.36,30.29,30.22,10,10,10,13,6,,0.00,6,Rain,43
2013-9-18,73,64,55,55,52,48,88,71,43,30.36,30.29,30.22,10,10,10,8,2,,0.00,4,,35
2013-9-19,78,66,55,63,57,54,100,80,47,30.25,30.20,30.14,10,10,7,6,0,,0.00,5,,310
2013-9-20,86,73,60,68,62,59,100,82,40,30.14,30.08,29.97,10,9,4,6,1,,0.00,3,,145
2013-9-21,77,70,64,70,66,63,100,89,69,29.99,29.89,29.76,10,7,2,14,3,22,0.30,5,Rain,90
2013-9-22,78,68,57,61,57,50,94,81,36,29.96,29.84,29.75,10,9,4,13,8,21,0.31,3,Rain,356
2013-9-23,73,64,55,57,54,52,100,79,47,30.12,30.05,29.97,10,10,7,9,2,,0.03,1,,22
2013-9-24,78,66,55,61,56,54,100,83,42,30.14,30.08,29.99,10,9,4,5,0,,0.00,5,,158
2013-9-25,69,64,59,63,59,55,100,89,60,29.99,29.96,29.93,10,8,3,6,0,,0.00,6,Rain,44
2013-9-26,75,65,55,61,56,52,100,84,44,30.09,29.99,29.93,10,7,2,12,2,,0.00,2,,15
2013-9-27,75,63,51,57,52,50,94,81,44,30.24,30.15,30.09,10,10,10,9,2,,0.00,1,,30
2013-9-28,71,61,51,55,51,48,100,84,43,30.31,30.24,30.22,10,10,7,14,2,16,0.00,1,,22
2013-9-29,73,62,51,55,53,50,100,83,50,30.22,30.17,30.09,10,10,7,7,3,,0.00,5,,2
2013-9-30,75,62,48,59,52,48,100,86,44,30.15,30.11,30.06,10,8,2,0,0,,0.00,1,,-1